Date String (YYYY-MM-DD hh:mm:ss) UTC,Instrument flags,Ambient pressure (hPa),Sample flow (lpm),Bypass flow (lpm),Sample temperature (°C),Ambient temperature (°C),ASC tube jacket temperature (°C),LED temperature (°C),Box temperature (°C),Sample RH (%),Span deviation,Mass concentration (μg/m³),Mass concentration (μg/m³),Mass concentration (μg/m³)
DateTimeUTC,F1_M11,P_M11,Q1_M11,Q2_M11,T1_M11,T2_M11,T3_M11,T4_M11,T5_M11,U1_M11,ZSPAN_M11,X0_M11,X2_M11,X1_M11
2023-04-04 02:00:00,,0811.5,5.01,0.00,23.7,22.0,00.0,32.2,25.2,17.0,0000.0,0030.85,0006.20,0003.40
2023-04-04 02:01:00,,0811.6,5.01,0.00,23.7,22.0,00.0,32.2,25.2,17.0,0000.0,0031.35,0006.25,0003.39
2023-04-04 02:02:00,,0811.5,5.00,0.00,23.7,22.0,00.0,32.2,25.2,17.0,0000.0,0030.91,0006.14,0003.37
2023-04-04 02:03:00,,0811.5,4.99,0.00,23.7,22.0,00.0,32.2,25.2,17.0,0000.0,0030.74,0006.02,0003.35
2023-04-04 02:04:00,,0811.7,5.00,0.00,23.7,22.0,00.0,32.2,25.2,17.0,0000.0,0028.92,0005.97,0003.34
2023-04-04 02:05:00,,0811.6,5.00,0.00,23.6,22.0,00.0,32.1,25.2,17.1,0000.0,0028.70,0005.98,0003.33
2023-04-04 02:06:00,,0811.8,5.00,0.00,23.6,21.9,00.0,32.1,25.1,17.1,0000.0,0028.25,0006.03,0003.34
2023-04-04 02:07:00,,0811.8,5.00,0.00,23.6,21.9,00.0,32.1,25.1,17.1,0000.0,0029.21,0006.09,0003.33
2023-04-04 02:08:00,,0811.8,5.00,0.00,23.6,21.9,00.0,32.1,25.1,17.1,0000.0,0029.40,0006.07,0003.32
2023-04-04 02:09:00,,0811.9,5.00,0.00,23.6,21.9,00.0,32.1,25.1,17.2,0000.0,0028.50,0006.07,0003.31
2023-04-04 02:10:00,,0811.8,5.00,0.00,23.5,21.9,00.0,32.1,25.1,17.2,0000.0,0027.51,0006.05,0003.30
2023-04-04 02:11:00,,0811.8,5.00,0.00,23.5,21.9,00.0,32.1,25.1,17.2,0000.0,0027.20,0006.02,0003.29
2023-04-04 02:12:00,,0811.7,5.00,0.00,23.5,21.9,00.0,32.0,25.1,17.2,0000.0,0025.33,0005.93,0003.28
2023-04-04 02:13:00,,0811.8,4.99,0.00,23.5,21.9,00.0,32.0,25.1,17.2,0000.0,0024.26,0005.89,0003.28
2023-04-04 02:14:00,,0811.8,5.00,0.00,23.5,21.8,00.0,32.0,25.1,17.2,0000.0,0023.07,0005.88,0003.30
2023-04-04 02:15:00,,0811.8,5.01,0.00,23.5,21.8,00.0,32.0,25.1,17.2,0000.0,0022.23,0005.80,0003.30
2023-04-04 02:16:00,,0811.7,5.01,0.00,23.5,21.8,00.0,32.0,25.1,17.3,0000.0,0021.83,0005.77,0003.29
2023-04-04 02:17:00,,0811.6,4.99,0.00,23.5,21.8,00.0,32.0,25.0,17.3,0000.0,0021.20,0005.70,0003.29
2023-04-04 02:18:00,,0811.5,5.00,0.00,23.5,21.8,00.0,32.0,25.0,17.2,0000.0,0019.78,0005.60,0003.28
2023-04-04 02:19:00,,0811.5,5.00,0.00,23.5,21.8,00.0,32.0,25.0,17.3,0000.0,0018.77,0005.55,0003.28
2023-04-04 02:20:00,,0811.5,5.00,0.00,23.5,21.7,00.0,32.0,25.0,17.3,0000.0,0018.84,0005.53,0003.29
2023-04-04 02:21:00,,0811.3,5.00,0.00,23.4,21.7,00.0,31.9,24.9,17.3,0000.0,0018.81,0005.41,0003.29
2023-04-04 02:22:00,,0811.3,5.00,0.00,23.4,21.7,00.0,31.9,24.9,17.4,0000.0,0018.17,0005.32,0003.28
2023-04-04 02:23:00,,0811.1,5.00,0.00,23.4,21.7,00.0,31.9,24.9,17.4,0000.0,0018.63,0005.23,0003.29
2023-04-04 02:24:00,,0811.0,5.00,0.00,23.4,21.7,00.0,31.9,24.9,17.4,0000.0,0018.64,0005.15,0003.28
2023-04-04 02:25:00,,0811.1,5.00,0.00,23.4,21.6,00.0,31.9,24.9,17.4,0000.0,0018.74,0005.11,0003.26
2023-04-04 02:26:00,,0811.1,5.00,0.00,23.3,21.6,00.0,31.9,24.8,17.4,0000.0,0018.21,0005.10,0003.24
2023-04-04 02:27:00,,0811.1,5.00,0.00,23.3,21.5,00.0,31.9,24.8,17.5,0000.0,0018.22,0005.06,0003.24
2023-04-04 02:28:00,,0811.1,4.99,0.00,23.3,21.5,00.0,31.8,24.8,17.5,0000.0,0017.81,0004.98,0003.22
2023-04-04 02:29:00,,0811.2,5.00,0.00,23.3,21.5,00.0,31.8,24.8,17.5,0000.0,0017.58,0004.96,0003.23
2023-04-04 02:30:00,,0811.2,5.00,0.00,23.3,21.5,00.0,31.8,24.8,17.5,0000.0,0018.04,0004.93,0003.23
2023-04-04 02:31:00,,0811.2,5.00,0.00,23.2,21.5,00.0,31.8,24.8,17.6,0000.0,0017.32,0004.85,0003.22
2023-04-04 02:32:00,,0811.3,5.00,0.00,23.2,21.5,00.0,31.8,24.8,17.6,0000.0,0016.84,0004.83,0003.21
2023-04-04 02:33:00,,0811.3,4.99,0.00,23.2,21.5,00.0,31.8,24.8,17.6,0000.0,0018.26,0004.84,0003.21
2023-04-04 02:34:00,,0811.5,4.98,0.00,23.2,21.5,00.0,31.7,24.8,17.6,-000.0,0018.03,0004.84,0003.20
2023-04-04 02:35:00,,0811.6,5.00,0.00,23.2,21.5,00.0,31.7,24.8,17.6,-000.1,0017.82,0004.83,0003.20
2023-04-04 02:36:00,,0811.6,5.00,0.00,23.2,21.5,00.0,31.7,24.7,17.6,0000.2,0017.53,0004.81,0003.19
2023-04-04 02:37:00,,0811.7,5.00,0.00,23.2,21.5,00.0,31.7,24.7,17.7,0000.1,0017.55,0004.77,0003.19
2023-04-04 02:38:00,,0811.8,5.00,0.00,23.2,21.5,00.0,31.7,24.7,17.7,-000.7,0018.22,0004.80,0003.19
2023-04-04 02:39:00,,0811.7,5.01,0.00,23.2,21.5,00.0,31.7,24.8,17.7,-000.5,0019.25,0004.82,0003.18
2023-04-04 02:40:00,,0811.6,5.00,0.00,23.2,21.5,00.0,31.7,24.8,17.7,-000.6,0020.50,0004.82,0003.17
2023-04-04 02:41:00,,0811.5,5.00,0.00,23.2,21.5,00.0,31.7,24.8,17.8,-000.1,0019.83,0004.75,0003.15
2023-04-04 02:42:00,,0811.5,5.00,0.00,23.2,21.5,00.0,31.7,24.7,17.9,0000.0,0020.08,0004.75,0003.13
2023-04-04 02:43:00,,0811.4,5.00,0.00,23.2,21.5,00.0,31.7,24.7,17.9,0000.0,0020.12,0004.69,0003.12
2023-04-04 02:44:00,,0811.3,5.00,0.00,23.1,21.4,00.0,31.6,24.6,18.0,0000.0,0018.52,0004.63,0003.09
2023-04-04 02:45:00,,0811.2,5.00,0.00,23.1,21.3,00.0,31.6,24.6,18.0,0000.0,0017.77,0004.60,0003.05
2023-04-04 02:46:00,,0811.2,5.00,0.00,23.1,21.2,00.0,31.6,24.6,18.1,0000.0,0018.80,0004.59,0003.02
2023-04-04 02:47:00,,0811.3,4.99,0.00,23.1,21.2,00.0,31.6,24.5,18.2,0000.0,0019.61,0004.51,0002.97
2023-04-04 02:48:00,,0811.4,5.00,0.00,23.0,21.2,00.0,31.6,24.5,18.2,0000.0,0018.92,0004.47,0002.92
2023-04-04 02:49:00,,0811.5,5.00,0.00,23.0,21.2,00.0,31.6,24.5,18.2,0000.0,0018.22,0004.46,0002.87
2023-04-04 02:50:00,,0811.6,5.00,0.00,23.0,21.2,00.0,31.5,24.5,18.2,0000.0,0017.42,0004.47,0002.85
2023-04-04 02:51:00,,0811.6,5.00,0.00,23.0,21.2,00.0,31.5,24.5,18.2,0000.0,0016.33,0004.43,0002.84
2023-04-04 02:52:00,,0811.6,4.99,0.00,23.0,21.2,00.0,31.5,24.5,18.3,0000.0,0016.76,0004.38,0002.81
2023-04-04 02:53:00,,0811.5,5.00,0.00,23.0,21.2,00.0,31.5,24.5,18.4,0000.0,0016.49,0004.33,0002.79
2023-04-04 02:54:00,,0811.4,5.00,0.00,22.9,21.2,00.0,31.5,24.4,18.5,0000.0,0017.78,0004.31,0002.73
2023-04-04 02:55:00,,0811.5,5.02,0.00,22.9,21.1,00.0,31.5,24.4,18.5,0000.0,0020.09,0004.33,0002.70
2023-04-04 02:56:00,,0811.5,5.00,0.00,22.9,21.1,00.0,31.4,24.4,18.5,0000.0,0020.61,0004.31,0002.69
2023-04-04 02:57:00,,0811.5,5.00,0.00,22.9,21.1,00.0,31.4,24.4,18.6,0000.0,0020.80,0004.31,0002.66
2023-04-04 02:58:00,,0811.5,5.00,0.00,22.8,21.1,00.0,31.4,24.4,18.7,0000.0,0019.58,0004.36,0002.66
2023-04-04 02:59:00,,0811.5,5.00,0.00,22.8,21.1,00.0,31.4,24.4,18.7,0000.0,0019.57,0004.34,0002.68
